When you browse on this site, cookies collect data to enhance your experience and personalize the content and advertising you see.
Visit our Privacy Policy to learn more. By continuing to use the site, you agree to this use of cookies and data.
  • în România
  • Lista ţărilor
  • Pe 7 zile
  • Temperatura apei
  • Hartă satelitară
  • Meteo pe hartă
  • Widget-uri
  • user-avatar
    Intrare

    Meteo pe oră la Trujillo

    Astăzi, 18 Iunie, Marţi

    Timp Temperatura Precipitaţii Vânt Presiune Umiditate
    00:00 +19°C° 0 mm 2 m/s 648 mmHg 83%
    01:00 +20°C° 0 mm 1 m/s 648 mmHg 83%
    02:00 +19°C° 0 mm 2 m/s 648 mmHg 83%
    03:00 +19°C° 0 mm 2 m/s 647 mmHg 83%
    04:00 +19°C° 0 mm 2 m/s 647 mmHg 83%
    05:00 +19°C° 0 mm 2 m/s 648 mmHg 82%
    06:00 +20°C° 0 mm 2 m/s 648 mmHg 81%
    07:00 +21°C° 0 mm 1 m/s 649 mmHg 79%
    08:00 +23°C° 0.1 mm 1 m/s 649 mmHg 75%
    09:00 +24°C° 0.1 mm 1 m/s 649 mmHg 72%
    10:00 +25°C° 0.1 mm 1 m/s 650 mmHg 68%
    11:00 +26°C° 0.2 mm 2 m/s 650 mmHg 66%
    12:00 +27°C° 0.2 mm 2 m/s 649 mmHg 64%
    13:00 +28°C° 0.2 mm 2 m/s 649 mmHg 62%
    14:00 +27°C° 1 mm 1 m/s 648 mmHg 67%
    15:00 +26°C° 1 mm 1 m/s 648 mmHg 73%
    16:00 +25°C° 1 mm 1 m/s 647 mmHg 78%
    17:00 +24°C° 0.1 mm 1 m/s 647 mmHg 82%
    18:00 +22°C° 0.1 mm 1 m/s 647 mmHg 86%
    19:00 +21°C° 0.1 mm 1 m/s 647 mmHg 90%
    20:00 +21°C° 0 mm 1 m/s 647 mmHg 88%
    21:00 +19°C° 0 mm 2 m/s 647 mmHg 87%
    22:00 +19°C° 0 mm 2 m/s 648 mmHg 86%
    23:00 +19°C° 0 mm 2 m/s 648 mmHg 84%

    Mâine, 19 Iunie, Miercuri

    Timp Temperatura Precipitaţii Vânt Presiune Umiditate
    00:00 +19°C° 0 mm 2 m/s 647 mmHg 83%
    01:00 +19°C° 0 mm 2 m/s 647 mmHg 82%
    02:00 +19°C° 0 mm 2 m/s 647 mmHg 82%
    03:00 +19°C° 0 mm 2 m/s 647 mmHg 82%
    04:00 +19°C° 0 mm 2 m/s 647 mmHg 82%
    05:00 +20°C° 0 mm 1 m/s 647 mmHg 80%
    06:00 +21°C° 0 mm 1 m/s 648 mmHg 79%
    07:00 +22°C° 0 mm 1 m/s 648 mmHg 78%
    08:00 +23°C° 0.1 mm 1 m/s 649 mmHg 74%
    09:00 +25°C° 0.1 mm 1 m/s 649 mmHg 70%
    10:00 +26°C° 0.1 mm 1 m/s 650 mmHg 65%
    11:00 +26°C° 0.4 mm 1 m/s 649 mmHg 67%
    12:00 +26°C° 0.4 mm 1 m/s 649 mmHg 69%
    13:00 +26°C° 0.4 mm 1 m/s 648 mmHg 70%
    14:00 +26°C° 0.8 mm 1 m/s 647 mmHg 74%
    15:00 +25°C° 0.8 mm 1 m/s 647 mmHg 77%
    16:00 +24°C° 0.8 mm 1 m/s 646 mmHg 80%
    17:00 +23°C° 0.3 mm 1 m/s 646 mmHg 83%
    18:00 +21°C° 0.3 mm 2 m/s 646 mmHg 86%
    19:00 +19°C° 0.3 mm 2 m/s 646 mmHg 90%
    20:00 +19°C° 0.2 mm 2 m/s 647 mmHg 89%
    21:00 +19°C° 0.2 mm 2 m/s 647 mmHg 88%
    22:00 +19°C° 0.2 mm 2 m/s 647 mmHg 87%
    23:00 +19°C° 0.9 mm 2 m/s 647 mmHg 88%

    Poimâine, 20 Iunie, Joi

    Timp Temperatura Precipitaţii Vânt Presiune Umiditate
    00:00 +19°C° 0.9 mm 2 m/s 647 mmHg 89%
    01:00 +19°C° 0.9 mm 2 m/s 647 mmHg 91%
    02:00 +19°C° 1.2 mm 2 m/s 647 mmHg 91%
    03:00 +19°C° 1.2 mm 2 m/s 647 mmHg 90%
    04:00 +19°C° 1.2 mm 2 m/s 646 mmHg 90%
    05:00 +19°C° 0.4 mm 2 m/s 647 mmHg 90%
    06:00 +19°C° 0.4 mm 2 m/s 647 mmHg 89%
    07:00 +20°C° 0.4 mm 1 m/s 648 mmHg 89%
    08:00 +21°C° 0.5 mm 1 m/s 649 mmHg 85%
    09:00 +22°C° 0.5 mm 1 m/s 649 mmHg 81%
    10:00 +23°C° 0.5 mm 1 m/s 650 mmHg 77%
    11:00 +23°C° 0.9 mm 1 m/s 649 mmHg 79%
    12:00 +23°C° 0.9 mm 1 m/s 649 mmHg 80%
    13:00 +22°C° 0.9 mm 1 m/s 649 mmHg 81%
    14:00 +23°C° 0.2 mm 1 m/s 648 mmHg 79%
    15:00 +23°C° 0.2 mm 1 m/s 648 mmHg 77%
    16:00 +24°C° 0.2 mm 1 m/s 648 mmHg 75%
    17:00 +22°C° 0 mm 1 m/s 648 mmHg 77%
    18:00 +21°C° 0 mm 1 m/s 648 mmHg 80%
    19:00 +19°C° 0 mm 2 m/s 648 mmHg 83%
    20:00 +19°C° 0 mm 2 m/s 648 mmHg 82%
    21:00 +19°C° 0 mm 2 m/s 649 mmHg 81%
    22:00 +19°C° 0 mm 2 m/s 649 mmHg 80%
    23:00 +19°C° 0 mm 2 m/s 649 mmHg 79%

    21 Iunie, Vineri

    Timp Temperatura Precipitaţii Vânt Presiune Umiditate
    00:00 +19°C° 0 mm 2 m/s 648 mmHg 79%
    01:00 +19°C° 0 mm 2 m/s 648 mmHg 79%
    02:00 +19°C° 0.1 mm 2 m/s 648 mmHg 79%
    03:00 +19°C° 0.1 mm 2 m/s 648 mmHg 80%
    04:00 +18°C° 0.1 mm 2 m/s 648 mmHg 81%
    05:00 +18°C° 1.7 mm 2 m/s 648 mmHg 84%
    06:00 +19°C° 1.7 mm 2 m/s 648 mmHg 87%
    07:00 +19°C° 1.7 mm 2 m/s 649 mmHg 89%
    08:00 +20°C° 1 mm 2 m/s 649 mmHg 85%
    09:00 +21°C° 1 mm 2 m/s 650 mmHg 81%
    10:00 +23°C° 1 mm 2 m/s 650 mmHg 78%
    11:00 +24°C° 0.1 mm 2 m/s 650 mmHg 71%
    12:00 +25°C° 0.1 mm 2 m/s 650 mmHg 64%
    13:00 +26°C° 0.1 mm 2 m/s 650 mmHg 57%
    14:00 +26°C° 0.1 mm 2 m/s 649 mmHg 57%
    15:00 +26°C° 0.1 mm 2 m/s 649 mmHg 58%
    16:00 +25°C° 0.1 mm 2 m/s 648 mmHg 58%
    17:00 +24°C° 0 mm 2 m/s 648 mmHg 64%
    18:00 +21°C° 0 mm 2 m/s 648 mmHg 69%
    19:00 +19°C° 0 mm 2 m/s 648 mmHg 75%
    20:00 +19°C° 0 mm 2 m/s 648 mmHg 72%
    21:00 +19°C° 0 mm 2 m/s 649 mmHg 69%
    22:00 +18°C° 0 mm 2 m/s 649 mmHg 67%
    23:00 +18°C° 0.1 mm 2 m/s 649 mmHg 71%

    22 Iunie, Sâmbătă

    Timp Temperatura Precipitaţii Vânt Presiune Umiditate
    00:00 +18°C° 0.1 mm 2 m/s 648 mmHg 74%
    01:00 +18°C° 0.1 mm 2 m/s 648 mmHg 78%
    02:00 +18°C° 0.1 mm 2 m/s 648 mmHg 79%
    03:00 +18°C° 0.1 mm 2 m/s 648 mmHg 80%
    04:00 +18°C° 0.1 mm 2 m/s 648 mmHg 81%
    05:00 +19°C° 0.2 mm 2 m/s 648 mmHg 81%
    06:00 +19°C° 0.2 mm 2 m/s 649 mmHg 81%
    07:00 +21°C° 0.2 mm 1 m/s 649 mmHg 81%
    08:00 +21°C° 0.7 mm 1 m/s 649 mmHg 80%
    09:00 +22°C° 0.7 mm 1 m/s 650 mmHg 78%
    10:00 +23°C° 0.7 mm 1 m/s 650 mmHg 77%
    11:00 +23°C° 0.6 mm 1 m/s 650 mmHg 77%
    12:00 +24°C° 0.6 mm 1 m/s 649 mmHg 76%
    13:00 +24°C° 0.6 mm 1 m/s 649 mmHg 76%
    14:00 +24°C° 0.4 mm 1 m/s 648 mmHg 77%
    15:00 +23°C° 0.4 mm 1 m/s 648 mmHg 78%
    16:00 +23°C° 0.4 mm 1 m/s 647 mmHg 79%
    17:00 +22°C° 0.1 mm 1 m/s 647 mmHg 82%
    18:00 +21°C° 0.1 mm 1 m/s 647 mmHg 85%
    19:00 +20°C° 0.1 mm 1 m/s 647 mmHg 88%
    20:00 +20°C° 0 mm 1 m/s 648 mmHg 88%
    21:00 +19°C° 0 mm 2 m/s 648 mmHg 87%
    22:00 +19°C° 0 mm 2 m/s 649 mmHg 86%
    23:00 +19°C° 0.1 mm 2 m/s 648 mmHg 86%

    23 Iunie, Duminică

    Timp Temperatura Precipitaţii Vânt Presiune Umiditate
    00:00 +20°C° 0.1 mm 1 m/s 648 mmHg 85%
    01:00 +20°C° 0.1 mm 1 m/s 648 mmHg 85%
    02:00 +20°C° 0.4 mm 1 m/s 648 mmHg 85%
    03:00 +20°C° 0.4 mm 1 m/s 647 mmHg 85%
    04:00 +20°C° 0.4 mm 1 m/s 647 mmHg 86%
    05:00 +20°C° 5.3 mm 1 m/s 648 mmHg 89%
    06:00 +19°C° 5.3 mm 1 m/s 648 mmHg 91%
    07:00 +18°C° 5.3 mm 2 m/s 648 mmHg 94%
    08:00 +19°C° 0.9 mm 2 m/s 648 mmHg 92%
    09:00 +21°C° 0.9 mm 1 m/s 649 mmHg 89%
    10:00 +21°C° 0.9 mm 1 m/s 649 mmHg 87%
    11:00 +22°C° 0.3 mm 1 m/s 649 mmHg 84%
    12:00 +22°C° 0.3 mm 1 m/s 649 mmHg 81%
    13:00 +23°C° 0.3 mm 1 m/s 648 mmHg 77%
    14:00 +23°C° 0.1 mm 1 m/s 648 mmHg 77%
    15:00 +23°C° 0.1 mm 1 m/s 647 mmHg 76%
    16:00 +23°C° 0.1 mm 1 m/s 647 mmHg 76%
    17:00 +22°C° 0 mm 1 m/s 647 mmHg 77%
    18:00 +21°C° 0 mm 1 m/s 647 mmHg 77%
    19:00 +21°C° 0 mm 1 m/s 647 mmHg 78%
    20:00 +20°C° 0 mm 1 m/s 647 mmHg 78%
    21:00 +20°C° 0 mm 1 m/s 647 mmHg 77%
    22:00 +20°C° 0 mm 1 m/s 648 mmHg 77%
    23:00 +20°C° 0 mm 1 m/s 648 mmHg 76%
    Arată mai mult